Corning, AR

9:30 AM CST on January 16, 2017 (GMT -0600)
Corning

Weather History for K4M9 - April, 2014

Change the Weather History Date:

Friday, April 25, 2014

  Actual Average (KARG) Record (KARG)
Temperature  
Mean Temperature 63 °F -  
Max Temperature 75 °F 70 °F 82 °F (2012)
Min Temperature 51 °F 51 °F 39 °F (2013)
Degree Days  
Heating Degree Days 2    
Growing Degree Days 13 (Base 50)    
Moisture  
Dew Point 50 °F    
Average Humidity 64    
Maximum Humidity 94    
Minimum Humidity 33    
Precipitation  
Precipitation 0.00 in - - ()
Sea Level Pressure  
Sea Level Pressure 29.93 in    
Wind  
Wind Speed 10 mph (West)    
Max Wind Speed 22 mph    
Max Gust Speed 30 mph    
Visibility 10 miles    
Events      
Averages and records for this station are not official NWS values.
T = Trace of Precipitation, MM = Missing Value Source: NWS Daily Summary

Daily Weather History Graph

Daily Weather History Graph

Search for Another Location

Airport or City:

Trip Planner

Search our weather history database for the weather conditions in past years. The results will help you decide how hot, cold, wet, or windy it might be!

Date:

Astronomy

Apr. 25, 2014 Rise Set
Actual Time 6:16 AM CDT 7:45 PM CDT
Civil Twilight 5:49 AM CDT 8:12 PM CDT
Nautical Twilight 5:16 AM CDT 8:45 PM CDT
Astronomical Twilight 4:42 AM CDT 9:19 PM CDT
Moon 3:57 AM CDT (4/25) 4:13 PM CDT (4/25)
Length of Visible Light 14h 23m
Length of Day
13h 29m
Waning Crescent, 15% of the Moon is Illuminated
Apr 25
Waning Crescent
Apr 29
New
May 6
First Quarter
May 14
Full
May 21
Last Quarter

Hourly Weather History & Observations

Time (CDT) Temp. Dew Point Humidity Pressure Visibility Wind Dir Wind Speed Gust Speed Precip Events Conditions
12:15 AM 60.8 °F 59.0 °F 94% 29.74 in 10.0 mi NW 11.5 mph 16.1 mph N/A   Mostly Cloudy
12:35 AM 59.0 °F 57.2 °F 94% 29.75 in 10.0 mi WNW 12.7 mph - N/A   Mostly Cloudy
12:55 AM 59.0 °F 55.4 °F 88% 29.76 in 10.0 mi WNW 10.4 mph 18.4 mph N/A   Mostly Cloudy
1:15 AM 59.0 °F 55.4 °F 88% 29.76 in 10.0 mi WNW 11.5 mph - N/A   Mostly Cloudy
1:35 AM 59.0 °F 55.4 °F 88% 29.77 in 10.0 mi West 8.1 mph - N/A   Mostly Cloudy
1:55 AM 59.0 °F 57.2 °F 94% 29.77 in 10.0 mi WNW 10.4 mph - N/A   Overcast
2:15 AM 59.0 °F 55.4 °F 88% 29.77 in 10.0 mi WNW 11.5 mph - N/A   Overcast
2:35 AM 59.0 °F 55.4 °F 88% 29.77 in 10.0 mi WNW 13.8 mph 19.6 mph N/A   Overcast
2:55 AM 59.0 °F 55.4 °F 88% 29.78 in 10.0 mi WNW 21.9 mph 29.9 mph N/A   Overcast
3:15 AM 59.0 °F 53.6 °F 82% 29.79 in 10.0 mi WNW 18.4 mph 26.5 mph N/A   Overcast
3:35 AM 57.2 °F 53.6 °F 88% 29.81 in 10.0 mi WNW 16.1 mph 25.3 mph N/A   Overcast
3:55 AM 57.2 °F 51.8 °F 82% 29.82 in 10.0 mi NW 15.0 mph 20.7 mph N/A   Overcast
4:15 AM 57.2 °F 51.8 °F 82% 29.83 in 10.0 mi WNW 17.3 mph 21.9 mph N/A   Overcast
4:35 AM 57.2 °F 50.0 °F 77% 29.84 in 10.0 mi WNW 13.8 mph - N/A   Mostly Cloudy
4:55 AM 55.4 °F 50.0 °F 82% 29.84 in 10.0 mi NW 11.5 mph - N/A   Clear
5:15 AM 55.4 °F 50.0 °F 82% 29.86 in 10.0 mi NW 10.4 mph - N/A   Clear
5:35 AM 53.6 °F 50.0 °F 88% 29.88 in 10.0 mi WNW 10.4 mph - N/A   Clear
5:55 AM 53.6 °F 48.2 °F 82% 29.89 in 10.0 mi WNW 10.4 mph - N/A   Clear
6:15 AM 53.6 °F 48.2 °F 82% 29.90 in 10.0 mi WNW 9.2 mph - N/A   Clear
6:35 AM 51.8 °F 48.2 °F 88% 29.90 in 10.0 mi West 8.1 mph - N/A   Clear
6:55 AM 53.6 °F 48.2 °F 82% 29.91 in 10.0 mi West 6.9 mph - N/A   Clear
7:15 AM 53.6 °F 48.2 °F 82% 29.93 in 10.0 mi West 9.2 mph - N/A   Clear
7:35 AM 53.6 °F 48.2 °F 82% 29.95 in 10.0 mi West 11.5 mph - N/A   Clear
7:55 AM 55.4 °F 48.2 °F 77% 29.95 in 10.0 mi West 9.2 mph - N/A   Clear
8:15 AM 55.4 °F 48.2 °F 77% 29.96 in 10.0 mi WNW 11.5 mph - N/A   Clear
8:35 AM 57.2 °F 48.2 °F 72% 29.97 in 10.0 mi WNW 10.4 mph - N/A   Clear
8:55 AM 57.2 °F 48.2 °F 72% 29.98 in 10.0 mi NW 11.5 mph - N/A   Clear
9:15 AM 59.0 °F 48.2 °F 67% 29.98 in 10.0 mi NNW 6.9 mph - N/A   Clear
9:35 AM 59.0 °F 46.4 °F 63% 29.99 in 10.0 mi NNW 9.2 mph - N/A   Clear
9:55 AM 60.8 °F 46.4 °F 59% 30.00 in 10.0 mi NW 9.2 mph - N/A   Clear
10:15 AM 62.6 °F 46.4 °F 55% 30.00 in 10.0 mi NW 6.9 mph - N/A   Clear
10:35 AM 62.6 °F 46.4 °F 55% 30.01 in 10.0 mi NNW 4.6 mph - N/A   Unknown
10:55 AM 64.4 °F 46.4 °F 52% 30.01 in 10.0 mi NNW 8.1 mph - N/A   Unknown
11:15 AM 66.2 °F 46.4 °F 49% 30.02 in 10.0 mi North 5.8 mph - N/A   Unknown
11:35 AM 66.2 °F 46.4 °F 49% 30.02 in 10.0 mi Calm Calm - N/A   Unknown
11:55 AM 68.0 °F 46.4 °F 46% 30.02 in 10.0 mi North 5.8 mph - N/A   Unknown
12:15 PM 68.0 °F 46.4 °F 46% 30.01 in 10.0 mi East 4.6 mph - N/A   Unknown
12:35 PM 71.6 °F 46.4 °F 41% 30.01 in 10.0 mi NNE 3.5 mph - N/A   Unknown
12:55 PM 71.6 °F 44.6 °F 38% 30.00 in 10.0 mi North 9.2 mph - N/A   Unknown
1:15 PM 73.4 °F 44.6 °F 36% 30.00 in 10.0 mi NNW 4.6 mph - N/A   Unknown
1:35 PM 73.4 °F 44.6 °F 36% 30.00 in 10.0 mi North 3.5 mph - N/A   Unknown
1:55 PM 73.4 °F 42.8 °F 33% 30.00 in 10.0 mi Calm Calm - N/A   Unknown
2:15 PM 73.4 °F 44.6 °F 36% 30.00 in 10.0 mi SW 4.6 mph - N/A   Unknown
2:35 PM 73.4 °F 42.8 °F 33% 29.99 in 10.0 mi NNE 3.5 mph - N/A   Unknown
2:55 PM 73.4 °F 42.8 °F 33% 29.98 in 10.0 mi Calm Calm - N/A   Unknown
3:15 PM 73.4 °F 44.6 °F 36% 29.97 in 10.0 mi South 6.9 mph - N/A   Unknown
3:35 PM 75.2 °F 44.6 °F 34% 29.97 in 10.0 mi SSE 4.6 mph - N/A   Clear
3:55 PM 75.2 °F 44.6 °F 34% 29.97 in 9.0 mi SE 4.6 mph - N/A   Unknown
4:15 PM 75.2 °F 44.6 °F 34% 29.96 in 10.0 mi SE 4.6 mph - N/A   Unknown
4:35 PM 75.2 °F 44.6 °F 34% 29.96 in 10.0 mi SSE 9.2 mph - N/A   Unknown
4:55 PM 75.2 °F 51.8 °F 44% 29.95 in 10.0 mi South 11.5 mph - N/A   Unknown
5:15 PM 75.2 °F 50.0 °F 41% 29.95 in 10.0 mi South 10.4 mph - N/A   Clear
5:35 PM 75.2 °F 51.8 °F 44% 29.95 in 10.0 mi South 11.5 mph - N/A   Clear
5:55 PM 73.4 °F 51.8 °F 47% 29.95 in 10.0 mi South 10.4 mph - N/A   Clear
6:15 PM 73.4 °F 50.0 °F 44% 29.94 in 10.0 mi South 8.1 mph - N/A   Clear
6:35 PM 73.4 °F 48.2 °F 41% 29.94 in 10.0 mi South 9.2 mph - N/A   Clear
6:55 PM 71.6 °F 50.0 °F 46% 29.94 in 10.0 mi South 6.9 mph - N/A   Clear
7:15 PM 71.6 °F 50.0 °F 46% 29.94 in 10.0 mi South 4.6 mph - N/A   Clear
7:35 PM 68.0 °F 55.4 °F 64% 29.94 in 10.0 mi South 6.9 mph - N/A   Clear
7:55 PM 66.2 °F 51.8 °F 60% 29.93 in 10.0 mi South 5.8 mph - N/A   Clear
8:15 PM 66.2 °F 53.6 °F 64% 29.94 in 10.0 mi SSE 5.8 mph - N/A   Clear
8:35 PM 62.6 °F 55.4 °F 77% 29.95 in 10.0 mi South 6.9 mph - N/A   Clear
8:55 PM 64.4 °F 53.6 °F 68% 29.95 in 10.0 mi South 6.9 mph - N/A   Clear
9:15 PM 64.4 °F 53.6 °F 68% 29.96 in 10.0 mi South 6.9 mph - N/A   Clear
9:35 PM 60.8 °F 53.6 °F 77% 29.97 in 10.0 mi South 8.1 mph - N/A   Clear
9:55 PM 62.6 °F 51.8 °F 68% 29.97 in 10.0 mi South 6.9 mph - N/A   Clear
10:15 PM 62.6 °F 53.6 °F 72% 29.97 in 10.0 mi South 6.9 mph - N/A   Clear
10:35 PM 62.6 °F 53.6 °F 72% 29.97 in 10.0 mi South 5.8 mph - N/A   Clear
10:55 PM 59.0 °F 53.6 °F 82% 29.97 in 10.0 mi South 6.9 mph - N/A   Clear
11:15 PM 59.0 °F 53.6 °F 82% 29.96 in 10.0 mi SSW 8.1 mph - N/A   Clear
11:35 PM 59.0 °F 51.8 °F 77% 29.96 in 10.0 mi South 5.8 mph - N/A   Clear
11:55 PM 57.2 °F 51.8 °F 82% 29.96 in 10.0 mi South 4.6 mph - N/A   Clear